Time,TemperatureF,DewpointF,PressureIn,WindDirection,WindDirectionDegrees,WindSpeedMPH,WindSpeedGustMPH,Humidity,HourlyPrecipIn,Conditions,Clouds,dailyrainin,SoftwareType,DateUTC
2013-04-09 00:00:00,31.0,30.0,-100.00,North,-999,-999.0,-999.0,95,-99.99,,,-99.99,,2013-04-09 07:00:00,
2013-04-09 01:00:00,31.0,29.0,-100.00,North,-999,-999.0,-999.0,91,-99.99,,,-99.99,,2013-04-09 08:00:00,
2013-04-09 02:00:00,31.0,29.0,-100.00,North,-999,-999.0,-999.0,91,-99.99,,,-99.99,,2013-04-09 09:00:00,
2013-04-09 03:00:00,30.0,28.0,-100.00,North,-999,-999.0,-999.0,94,-99.99,,,-99.99,,2013-04-09 10:00:00,
2013-04-09 04:00:00,29.0,27.0,-100.00,North,-999,-999.0,-999.0,94,-99.99,,,-99.99,,2013-04-09 11:00:00,
2013-04-09 05:00:00,29.0,28.0,-100.00,North,-999,-999.0,-999.0,95,-99.99,,,-99.99,,2013-04-09 12:00:00,
2013-04-09 06:00:00,29.0,27.0,-100.00,North,-999,-999.0,-999.0,94,-99.99,,,-99.99,,2013-04-09 13:00:00,
2013-04-09 07:00:00,29.0,27.0,-100.00,North,-999,-999.0,-999.0,93,-99.99,,,-99.99,,2013-04-09 14:00:00,
2013-04-09 10:00:00,39.0,29.0,-100.00,North,-999,-999.0,-999.0,67,-99.99,,,-99.99,,2013-04-09 17:00:00,
2013-04-09 12:00:00,44.0,30.0,-100.00,North,-999,-999.0,-999.0,57,-99.99,,,-99.99,,2013-04-09 19:00:00,
2013-04-09 13:00:00,43.0,30.0,-100.00,North,-999,-999.0,-999.0,59,-99.99,,,-99.99,,2013-04-09 20:00:00,
2013-04-09 14:00:00,44.0,28.0,-100.00,North,-999,-999.0,-999.0,52,-99.99,,,-99.99,,2013-04-09 21:00:00,
2013-04-09 15:00:00,44.0,33.0,-100.00,North,-999,-999.0,-999.0,65,-99.99,,,-99.99,,2013-04-09 22:00:00,
2013-04-09 16:00:00,44.0,33.0,-100.00,North,-999,-999.0,-999.0,65,-99.99,,,-99.99,,2013-04-09 23:00:00,
2013-04-09 17:00:00,41.0,33.0,-100.00,North,-999,-999.0,-999.0,72,-99.99,,,-99.99,,2013-04-10 00:00:00,
2013-04-09 18:00:00,40.0,34.0,-100.00,North,-999,-999.0,-999.0,79,-99.99,,,-99.99,,2013-04-10 01:00:00,
2013-04-09 19:00:00,38.0,34.0,-100.00,North,-999,-999.0,-999.0,84,-99.99,,,-99.99,,2013-04-10 02:00:00,
2013-04-09 21:00:00,37.0,34.0,-100.00,North,-999,-999.0,-999.0,89,-99.99,,,-99.99,,2013-04-10 04:00:00,
2013-04-09 22:00:00,36.0,33.0,-100.00,North,-999,-999.0,-999.0,90,-99.99,,,-99.99,,2013-04-10 05:00:00,
2013-04-09 23:00:00,36.0,33.0,-100.00,North,-999,-999.0,-999.0,89,-99.99,,,-99.99,,2013-04-10 06:00:00,